Simultaneous Nadir Overpasses (SNOs) Predictions

Prediction of SNOs between AQUA and NPP Satellite Orbit:

Table of predicted SNOs for the next 14.0 days since TLE Epoch: 3/22/2019
Index Date (AQUA) Time (AQUA) Lat,Lon (AQUA) SZA (AQUA ) Date (NPP) Time (NPP) Lat,Lon (NPP) SZA (NPP ) Distance(km) Time Diff (sec)
1 03/24/2019 22:38:28 76.25, 80.27 95.65 03/24/2019 22:38:08 76.26, 80.31 95.66 1.24 20
2 03/24/2019 23:27:39 -77.05,-109.33 85.31 03/24/2019 23:28:36 -77.04,-109.35 85.35 0.56 57
3 03/27/2019 14:06:15 -74.16, 22.80 83.06 03/27/2019 14:05:01 -74.20, 22.61 82.97 7.20 74
4 03/27/2019 14:54:56 76.37,-163.46 94.44 03/27/2019 14:54:59 76.36,-163.53 94.46 1.95 3
5 03/27/2019 15:40:05 -80.62, 88.62 100.09 03/27/2019 15:41:18 -79.95, 86.41 100.41 85.89 73
6 03/30/2019 06:22:13 -75.78, 142.94 85.93 03/30/2019 06:21:21 -75.78, 142.95 85.89 0.38 52
7 03/30/2019 07:11:16 76.82, -46.05 92.85 03/30/2019 07:11:41 76.82, -46.00 92.82 1.31 25
8 04/01/2019 22:38:38 -75.99,-100.56 87.23 04/01/2019 22:38:09 -75.98,-100.61 87.19 1.35 29
9 04/01/2019 23:27:44 76.92, 70.21 91.67 04/01/2019 23:28:32 76.92, 70.18 91.64 0.97 48
10 04/04/2019 14:55:04 -76.19, 15.93 88.50 04/04/2019 14:54:58 -76.18, 15.85 88.47 2.60 6




NCC Satellite Simultaneous Nadir Overpasses (SNOs) Prediction Service
